EW7655 Weather Reports


time (UTC)temp
C
wind
direction
speed
KPH
gust
KPH
rain 1hr
cm
rain 24hr
cm
rain mn
cm
humidity
%
barometer
mb
20260508014550 25 209 17.7 0.0 0.00 0.00 0.00 13 1020.8
20260508013047 25 205 16.1 0.0 0.00 0.00 0.00 12 1020.4
20260508011545 25 167 14.5 0.0 0.00 0.00 0.00 12 1021.3
20260508010045 26 184 17.7 0.0 0.00 0.00 0.00 12 1021.0
20260508004544 26 224 16.1 0.0 0.00 0.00 0.00 12 1021.0
20260508003043 26 165 9.7 0.0 0.00 0.00 0.00 12 1021.0
20260508001542 26 166 9.7 0.0 0.00 0.00 0.00 12 1021.4
20260508000042 26 208 12.9 0.0 0.00 0.00 0.00 12 1021.4
20260507234541 26 148 14.5 0.0 0.00 0.00 0.00 12 1021.4
20260507233044 26 169 12.9 0.0 0.00 0.00 0.00 12 1021.6
20260507231540 26 219 11.3 0.0 0.00 0.00 0.00 12 1021.5
20260507230045 25 126 17.7 0.0 0.00 0.00 0.00 12 1021.8
20260507224542 25 107 14.5 0.0 0.00 0.00 0.00 12 1021.7
20260507223037 25 106 11.3 0.0 0.00 0.00 0.00 12 1021.9
20260507221540 25 102 12.9 0.0 0.00 0.00 0.00 13 1021.8
20260507220037 26 135 8.0 0.0 0.00 0.00 0.00 12 1021.9
20260507214536 25 267 4.8 0.0 0.00 0.00 0.00 13 1022.7
20260507213041 25 253 8.0 0.0 0.00 0.00 0.00 14 1022.8
20260507211531 25 76 8.0 0.0 0.00 0.00 0.00 14 1022.5
20260507210029 25 206 11.3 0.0 0.00 0.00 0.00 14 1022.8
20260507204526 24 183 11.3 0.0 0.00 0.00 0.00 14 1023.5
20260507203032 23 113 9.7 0.0 0.00 0.00 0.00 15 1023.8
20260507201525 23 149 11.3 0.0 0.00 0.00 0.00 14 1024.2
20260507200020 23 117 8.0 0.0 0.00 0.00 0.00 15 1024.7
20260507194519 22 65 9.7 0.0 0.00 0.00 0.00 15 1025.1
20260507193018 22 47 6.4 0.0 0.00 0.00 0.00 16 1025.3
20260507191515 22 5 12.9 0.0 0.00 0.00 0.00 16 1025.7
20260507190014 22 32 9.7 0.0 0.00 0.00 0.00 16 1025.9
20260507184510 21 84 14.5 0.0 0.00 0.00 0.00 17 1026.4
20260507183011 21 80 12.9 0.0 0.00 0.00 0.00 17 1026.8
20260507181504 20 98 14.5 0.0 0.00 0.00 0.00 18 1026.5
20260507180100 20 86 16.1 0.0 0.00 0.00 0.00 19 1027.0
20260507174557 19 92 16.1 0.0 0.00 0.00 0.00 19 1027.5
20260507173054 18 97 12.9 0.0 0.00 0.00 0.00 19 1027.6
20260507171550 18 105 17.7 0.0 0.00 0.00 0.00 20 1027.7
20260507170048 18 57 17.7 0.0 0.00 0.00 0.00 20 1027.8
20260507164555 18 57 16.1 0.0 0.00 0.00 0.00 20 1027.8
20260507163037 18 30 16.1 0.0 0.00 0.00 0.00 21 1028.1
20260507161533 17 24 19.3 0.0 0.00 0.00 0.00 22 1028.5
20260507160030 17 61 11.3 0.0 0.00 0.00 0.00 23 1028.6
20260507154530 16 98 8.0 0.0 0.00 0.00 0.00 23 1029.1
20260507153026 16 38 6.4 0.0 0.00 0.00 0.00 24 1029.2
20260507151523 15 67 8.0 0.0 0.00 0.00 0.00 26 1029.1
20260507150023 15 355 4.8 0.0 0.00 0.00 0.00 27 1029.4
20260507144522 15 344 9.7 0.0 0.00 0.00 0.00 30 1029.4
20260507143009 13 355 8.0 0.0 0.00 0.00 0.00 35 1029.4
20260507141505 13 11 6.4 0.0 0.00 0.00 0.00 35 1029.2
20260507140001 13 337 4.8 0.0 0.00 0.00 0.00 37 1029.4
20260507134603 12 333 6.4 0.0 0.00 0.00 0.00 41 1029.2
20260507133113 12 337 6.4 0.0 0.00 0.00 0.00 43 1029.1
20260507131553 11 332 6.4 0.0 0.00 0.00 0.00 46 1028.7
20260507130056 10 327 8.0 0.0 0.00 0.00 0.00 49 1029.0
20260507124539 10 317 8.0 0.0 0.00 0.00 0.00 50 1028.7
20260507123037 10 330 8.0 0.0 0.00 0.00 0.00 50 1028.5
20260507121535 10 355 11.3 0.0 0.00 0.00 0.00 50 1028.4
20260507120042 10 355 14.5 0.0 0.00 0.00 0.00 51 1028.0
20260507114537 10 9 14.5 0.0 0.00 0.00 0.00 50 1028.0
20260507113027 11 360 12.9 0.0 0.00 0.00 0.00 47 1027.9
20260507111525 11 355 12.9 0.0 0.00 0.00 0.00 47 1027.7
20260507110023 11 360 11.3 0.0 0.00 0.00 0.00 47 1027.6
20260507104520 11 347 12.9 0.0 0.00 0.00 0.00 47 1027.6
20260507103018 12 346 14.5 0.0 0.00 0.00 0.00 46 1027.4
20260507101517 12 340 14.5 0.0 0.00 0.00 0.00 44 1027.6
20260507100011 12 343 14.5 0.0 0.00 0.00 0.00 42 1027.6
20260507094507 13 346 14.5 0.0 0.00 0.00 0.00 40 1027.2
20260507093006 13 355 14.5 0.0 0.00 0.00 0.00 39 1027.2
20260507091502 13 355 14.5 0.0 0.00 0.00 0.00 38 1027.0
20260507090004 14 338 16.1 0.0 0.00 0.00 0.00 38 1027.0
20260507084602 14 355 17.7 0.0 0.00 0.00 0.00 38 1027.1
20260507083058 14 10 17.7 0.0 0.00 0.00 0.00 38 1027.1
20260507081555 15 355 17.7 0.0 0.00 0.00 0.00 37 1027.1
20260507080116 15 360 14.5 0.0 0.00 0.00 0.00 37 1027.2
20260507074550 15 13 11.3 0.0 0.00 0.00 0.00 37 1027.2
20260507073052 15 355 11.3 0.0 0.00 0.00 0.00 36 1027.2
20260507071544 15 342 9.7 0.0 0.00 0.00 0.00 36 1027.4
20260507070041 16 346 9.7 0.0 0.00 0.00 0.00 34 1027.3
20260507064537 16 5 8.0 0.0 0.00 0.00 0.00 33 1027.0
20260507063036 16 23 8.0 0.0 0.00 0.00 0.00 33 1027.0
20260507061534 17 355 8.0 0.0 0.00 0.00 0.00 33 1026.8
20260507060036 17 30 9.7 0.0 0.00 0.00 0.00 32 1026.6
20260507054536 17 44 16.1 0.0 0.00 0.00 0.00 32 1026.5
20260507053030 17 51 9.7 0.0 0.00 0.00 0.00 32 1026.3
20260507051532 18 44 9.7 0.0 0.00 0.00 0.00 25 1026.1
20260507050032 19 285 4.8 0.0 0.00 0.00 0.00 19 1025.8
20260507044528 18 273 6.4 0.0 0.00 0.00 0.00 20 1025.6
20260507043028 18 305 4.8 0.0 0.00 0.00 0.00 20 1025.4
20260507041527 18 307 4.8 0.0 0.00 0.00 0.00 19 1025.6
20260507040027 19 327 4.8 0.0 0.00 0.00 0.00 19 1024.8
20260507034527 19 341 6.4 0.0 0.00 0.00 0.00 19 1024.6
20260507033029 20 343 8.0 0.0 0.00 0.00 0.00 18 1024.1
20260507031526 20 5 9.7 0.0 0.00 0.00 0.00 18 1023.6
20260507030026 21 355 11.3 0.0 0.00 0.00 0.00 17 1023.2
20260507024525 21 355 8.0 0.0 0.00 0.00 0.00 16 1022.9
20260507023025 21 342 6.4 0.0 0.00 0.00 0.00 15 1022.3
20260507021525 22 355 4.8 0.0 0.00 0.00 0.00 13 1022.5
20260507020029 22 24 8.0 0.0 0.00 0.00 0.00 13 1022.0